User: anonymous   Login
Location: Unspecified
(0.0000°N, 0.0000°E)
Time: 04:16:04
(UTC+00:00)
Language:

STARLINK-34499 - Orbit

View from above orbital plane
View from above orbital plane
View from above satellite
View from above satellite

Ground track
Ground track

The orbit is defined by the following mean orbital elements,

1 64709U          26145.33376404 +.00000000 +00000-0 +36912-3 0 00001
2 64709  70.0002 121.0931 0004154 263.3509  96.7177 14.98338313    06
Epoch (UTC): 25 May 2026 08:00:37
Eccentricity: 0.0004154
inclination: 70.0002°
perigee height: 569 km
apogee height: 575 km
right ascension of ascending node: 121.0931°
argument of perigee: 263.3509°
revolutions per day: 14.98338313
mean anomaly at epoch: 96.7177°

The dashed part of the orbit path shows where the satellite is in the earth's shadow,  

DLR